Flag for Japan Weather past 2 weeks in Fukuoka, Japan

Now
68 °F

Light rain. Broken clouds.


Feels Like: 68 °F
Forecast: 56 / 67 °F
Wind: 18 mph from Southeast

Location: Fukuoka Airport

Current Time: Apr 19, 2015 at 7:21:28 PM

Latest Report: Apr 19, 2015 at 6:30 PM


Visibility: 5 mi

Pressure: 29.68 "Hg

Humidity: 88%

Dew point: 64 °F

Location of FukuokaLocation

Historic Weather in Fukuoka — Graph

°F

Fukuoka temperature yesterday

Maximum temperature yesterday: 77 °F (at 1:30 PM)
Minimum temperature yesterday: 46 °F (at 6:00 AM)
Average temperature yesterday: 61 °F

Past Weeks' High & Low Weather Summary

 TemperatureHumidityPressure
High77 °F (Apr 18, 1:30 PM)100% (Apr 5, 3:00 AM)30.27 "Hg (Apr 5, 3:00 AM)
Low45 °F (Apr 9, 1:30 AM)11% (Apr 18, 1:30 PM)29.65 "Hg (Apr 14, 9:30 PM)
Average58 °F70%30.00 "Hg
* Reported Apr 4 6:00 PM — Apr 19 6:00 PM, Fukuoka, Weather by CustomWeather, © 2015

Note: Actual official high and low records may vary slightly from our data, if they occured in-between our weather recording intervals... More about our weather records

Advertising

Fukuoka weather history for previous 24 hours

 ConditionsComfort  
Time TempWeatherWind HumidityBarometerVisibility
6:00 PM
Sun, Apr 19
68 °FLight rain. Broken clouds.18 mph88%29.68 "Hg4 mi
5:30 PM68 °FLight rain. Broken clouds.18 mph88%29.68 "Hg4 mi
5:00 PM68 °FLight rain. Broken clouds.13 mph88%29.68 "Hg4 mi
4:30 PM70 °FLight rain. Partly sunny.12 mph78%29.71 "Hg4 mi
4:00 PM70 °FLight rain. Partly sunny.9 mph78%29.74 "Hg4 mi
3:30 PM70 °FLight rain. Partly sunny.10 mph78%29.74 "Hg4 mi
3:00 PM70 °FSprinkles. Broken clouds.8 mph83%29.74 "Hg4 mi
2:49 PM70 °FSprinkles. Broken clouds.9 mph83%29.74 "Hg4 mi
2:30 PM68 °FRain showers. Broken clouds.10 mph88%29.77 "Hg3 mi
2:00 PM70 °FLight rain. Mostly cloudy.9 mph78%29.77 "Hg4 mi
1:30 PM70 °FLight rain. More clouds than sun.8 mph78%29.80 "Hg4 mi
1:00 PM68 °FBroken clouds.7 mph83%29.80 "Hg4 mi
12:30 PM68 °FSprinkles. Broken clouds.8 mph83%29.80 "Hg4 mi
12:00 PM68 °FSprinkles. Broken clouds.8 mph83%29.83 "Hg4 mi
11:30 AM68 °FSprinkles. Partly sunny.12 mph83%29.86 "Hg4 mi
11:00 AM66 °FSprinkles. Broken clouds.10 mph88%29.86 "Hg4 mi
10:30 AM66 °FSprinkles. Broken clouds.13 mph88%29.89 "HgN/A
10:00 AM66 °FSprinkles. Broken clouds.14 mph83%29.89 "HgN/A
9:30 AM66 °FSprinkles. Broken clouds.10 mph88%29.89 "Hg4 mi
9:00 AM66 °FSprinkles. Broken clouds.10 mph83%29.89 "Hg4 mi
8:00 AM64 °FSprinkles. Broken clouds.12 mph83%29.92 "HgN/A
7:30 AM66 °FLight rain. Partly sunny.16 mph78%29.92 "HgN/A
7:00 AM66 °FLight rain. Broken clouds.16 mph78%29.92 "HgN/A
6:30 AM66 °FLight rain. Broken clouds.13 mph78%29.89 "HgN/A
6:00 AM64 °FLight rain. Broken clouds.12 mph78%29.89 "HgN/A
5:30 AM64 °FPartly cloudy.16 mph78%29.89 "HgN/A
5:00 AM64 °FPartly cloudy.14 mph73%29.89 "HgN/A
4:30 AM63 °FLight rain. Passing clouds.10 mph77%29.89 "HgN/A
4:00 AM64 °FLight rain. Partly cloudy.18 mph73%29.92 "HgN/A
3:30 AM64 °FPartly cloudy.15 mph73%29.92 "HgN/A
3:00 AM63 °FPartly cloudy.17 mph77%29.92 "HgN/A
2:30 AM63 °FPartly cloudy.9 mph77%29.95 "HgN/A
2:00 AM63 °FLight rain. Partly cloudy.9 mph77%29.95 "HgN/A
1:30 AM61 °FLight rain. Partly cloudy.12 mph83%29.95 "HgN/A
1:00 AM61 °FLight rain. Partly cloudy.14 mph83%29.95 "HgN/A
12:30 AM61 °FPartly cloudy.17 mph83%29.95 "HgN/A
12:00 AM61 °FPartly cloudy.14 mph88%29.95 "HgN/A
11:30 PM
Sat, Apr 18
61 °FSprinkles. Partly cloudy.18 mph88%29.98 "Hg6 mi
11:00 PM61 °FRain showers. Partly cloudy.9 mph88%29.98 "Hg4 mi
10:30 PM61 °FRain showers. Partly cloudy.8 mph88%29.98 "Hg5 mi
10:00 PM61 °FSprinkles. Passing clouds.8 mph83%30.01 "HgN/A
9:30 PM61 °FSprinkles. Passing clouds.8 mph83%30.01 "HgN/A
9:00 PM64 °FLight rain. Partly cloudy.8 mph56%30.01 "HgN/A
8:30 PM66 °FLight rain. Partly cloudy.9 mph49%30.01 "HgN/A
8:00 PM66 °FLight rain. Partly cloudy.5 mph43%29.98 "HgN/A
7:30 PM66 °FLight rain. Partly cloudy.6 mph43%29.98 "HgN/A
7:00 PM66 °FLight rain. Partly cloudy.3 mph43%29.95 "HgN/A
Weather by CustomWeather, © 2015

See weather overviewHow to use our weather pages